Regional Weather Roundup
Issued by NWS

Home | Current Version | Previous Version | Text Only | Print | Product List | Glossary Off
Versions: 1 2 3 4 5 6 7 8 9 10 11 12 13 14 15 16 17 18 19 20 21 22 23 24 25 26 27 28 29 30 31 32 33 34 35 36 37 38 39 40 41 42 43 44 45 46 47 48 49 50

000
ASUS45 KABQ 240710
RWRNM
NEW MEXICO REGIONAL WEATHER ROUNDUP
NATIONAL WEATHER SERVICE ALBUQUERQUE NM
100 AM MDT WED MAY 24 2017

NOTE: "FAIR" MEANS FEW OR NO CLOUDS BELOW 12,000 FEET AGL WITH NO
       SIGNIFICANT WEATHER OR OBSTRUCTIONS TO VISION.

      THIS PRODUCT IS RELEASED AS TWO VERSIONS.  ONE VERSION NEAR
      THE TOP OF THE HOUR CONTAINING PRELIMINARY DATA FROM ALBUQUERQUE
      AND OTHER STATIONS.  A FINAL VERSION WITH ADDITIONAL DATA IS
      ISSUED ABOUT 10 MINUTES AFTER THE HOUR.

NMZ501-503-504-510>518-240800-
NORTHWEST PLATEAU/NORTHCENTRAL MOUNTAINS

CITY           SKY/WX    TMP DP  RH WIND       PRES   REMARKS
FARMINGTON     FAIR      55  25  31 W8        30.08S
LOS ALAMOS     FAIR      49  32  51 S12G17    30.17S
SANTA FE       FAIR      50  34  54 SE15G24   30.14S
TAOS           FAIR      41  23  48 CALM      30.17R
ANGEL FIRE     FAIR      32  29  88 CALM      30.22S

$$
NMZ402-403-502-505>509-240800-
WESTCENTRAL MOUNTAINS/SOUTHWEST MOUNTAINS

CITY           SKY/WX    TMP DP  RH WIND       PRES   REMARKS
GALLUP         FAIR      45  25  45 NE5       30.17F
GRANTS         FAIR      52  21  30 N8        30.16F
SILVER CITY    FAIR      55  25  30 N13       30.08S

$$
NMZ407-409-411-412-240800-
SOUTHERN DESERTS

CITY           SKY/WX    TMP DP  RH WIND       PRES   REMARKS
DEMING         FAIR      64  37  36 NE12      30.02R
LAS CRUCES     FAIR      64  37  38 SE13      30.04R
HOLLOMAN AFB   FAIR      62  37  38 S10       30.06S
ALAMOGORDO     FAIR      57  32  38 NE7       30.04S
T OR C         FAIR      68  19  15 W3        30.04S

$$
NMZ519>523-240800-
CENTRAL VALLEYS/CENTRAL HIGHLANDS

CITY           SKY/WX    TMP DP  RH WIND       PRES   REMARKS
ALBUQUERQUE    FAIR      61  27  27 E8        30.08R
DOUBLE EAGLE   FAIR      54  24  30 N8        30.10R
MORIARTY ARPT  FAIR      45  32  59 CALM      30.16F
CLINES CORNERS FAIR      41  31  67 E9        30.18F
BELEN          FAIR      57  22  25 W5        30.07S
SOCORRO        FAIR      56  17  21 CALM      30.05F

$$
NMZ524>526-539-540-240800-
SOUTHCENTRAL MOUNTAINS

CITY           SKY/WX    TMP DP  RH WIND       PRES   REMARKS
RUIDOSO        MOCLDY    43  30  61 S5        30.19F

$$
NMZ527>531-240800-
NORTHEAST HIGHLANDS/NORTHEAST PLAINS

CITY           SKY/WX    TMP DP  RH WIND       PRES   REMARKS
LAS VEGAS      FAIR      38  30  73 S6        30.17F WCI  33
RATON          FAIR      40  32  73 NE5       30.13S
CLAYTON        FAIR      42  35  76 W10       30.07F

$$
NMZ532>537-240800-
EASTCENTRAL PLAINS

CITY           SKY/WX    TMP DP  RH WIND       PRES   REMARKS
SANTA ROSA     FAIR      47  36  64 CALM      30.10F
TUCUMCARI      FAIR      51  42  71 W7        30.05F
CANNON AFB     FAIR      48  44  84 NW6       30.09F
CLOVIS AIRPORT FAIR      48  37  66 CALM      30.08F

$$
NMZ028-029-538-240800-
SOUTHEAST PLAINS

CITY           SKY/WX    TMP DP  RH WIND       PRES   REMARKS
ROSWELL        FAIR      52  33  48 CALM      30.07F
ARTESIA        FAIR      54  32  43 SW7       30.07F
CARLSBAD       FAIR      55  41  59 SW9       30.05F
HOBBS          FAIR      48  32  53 NW3       30.09F


$$




USA.gov is the U.S. government's official web portal to all federal, state and local government web resources and services.